Location: Gälforsberget
(66.6500°N, 22.4167°E)
Time: 07:42:49
(UTC+00:00)

Cosmos 807 - Pass Details

Date: 11 April 2026
Orbit: 362 x 1009 km, 82.9° (Epoch: 12 May)

Event Time Altitude Azimuth Distance (km) Brightness Sun altitude
Rises 21:04:10 0° 342° (NNW) 2,252 10.0 -13.1°
Reaches altitude 10° 21:06:09 10° 343° (NNW) 1,376 8.3 -13.2°
Maximum altitude 21:09:04 88° 75° (ENE) 375 3.9 -13.3°
Enters shadow 21:10:25 29° 162° (SSE) 721 4.8 -13.4°
